This is the latest recevied weather packets stored in our database for station/object OK1FET-5. If no packets are shown the sender has not sent any weather packets the latest 10 day(s).
| Time | Temp. | Humidity | Pressure | Rain* | Wind** | Luminosity | Snow |
|---|---|---|---|---|---|---|---|
| 1788036787 | 18.89° C | 68% | 1016.9 hPa | - | - | - | - |
| 1788036191 | 19.44° C | 66% | 1016.9 hPa | - | - | - | - |
| 1788035595 | 19.44° C | 68% | 1016.9 hPa | - | - | - | - |
| 1788034999 | 19.44° C | 65% | 1016.8 hPa | - | - | - | - |
| 1788034404 | 19.44° C | 66% | 1016.9 hPa | - | - | - | - |
| 1788033820 | 20° C | 61% | 1016.9 hPa | - | - | - | - |
| 1788033212 | 20° C | 62% | 1016.9 hPa | - | - | - | - |
| 1788032616 | 20° C | 61% | 1017 hPa | - | - | - | - |
| 1788032020 | 20° C | 63% | 1017 hPa | - | - | - | - |
| 1788031425 | 20° C | 62% | 1016.9 hPa | - | - | - | - |
| 1788030829 | 20° C | 65% | 1016.8 hPa | - | - | - | - |
| 1788030233 | 20° C | 68% | 1016.8 hPa | - | - | - | - |
| 1788028446 | 20.56° C | 67% | 1016.7 hPa | - | - | - | - |
| 1788027850 | 20.56° C | 66% | 1016.7 hPa | - | - | - | - |
| 1788026658 | 21.11° C | 67% | 1016.6 hPa | - | - | - | - |
| 1788026063 | 21.11° C | 65% | 1016.6 hPa | - | - | - | - |
| 1788025468 | 21.11° C | 71% | 1016.6 hPa | - | - | - | - |
| 1788024871 | 21.67° C | 67% | 1016.6 hPa | - | - | - | - |
| 1788024275 | 22.22° C | 73% | 1016.6 hPa | - | - | - | - |
| 1788023679 | 22.78° C | 63% | 1016.7 hPa | - | - | - | - |
| 1788023084 | 23.89° C | 59% | 1016.6 hPa | - | - | - | - |
| 1788022488 | 24.44° C | 65% | 1016.7 hPa | - | - | - | - |
| 1788021892 | 25° C | 68% | 1016.8 hPa | - | - | - | - |
| 1788021296 | 25.56° C | 64% | 1016.9 hPa | - | - | - | - |
| 1788020701 | 25.56° C | 66% | 1016.9 hPa | - | - | - | - |
* Rain since midnight (hover to see other rain measurements)
** Current wind speed in m/s (hover to see current wind gust speed)